[[{"header":{"parameterUnit":"m.s-1","parameterCategory":1,"la1":30.2991,"la2":30.254,"lo1":-89.0895,"lo2":-89.0444,"dy":0.0017,"dx":0.0017,"nx":28,"ny":28,"refTime":"2025-11-26T09:00:00:Z","depth":0,"parameterNumber":2,"parameterNumberName":"U-component_of_WINDS"},"data":[0,0,0,0,0,0,0,0,0,0,0,0,0,0,0,0,0,0,0,0,0,0,0,0,0,0,0,0,0,0,0,0,0,0,0,0,0,0,0,0,0,0,0,0,0,0,0,0,0,0,0,0,0,0,0,0,0,0,-2.1273,-2.1273,0,-2.1278,-2.1278,-2.1278,-2.1216,-2.1214,-2.1212,-2.1211,-2.1217,-2.1219,-2.122,0,0,0,0,0,0,0,0,0,0,0,0,0,-2.1212,-2.1214,-2.1273,-2.1273,-2.1273,-2.1278,-2.1278,-2.1278,-2.1216,-2.1214,-2.1212,-2.121,-2.1216,-2.1218,-2.122,0,0,0,0,0,0,0,0,0,0,0,0,0,-2.123,-2.1214,-2.1273,-2.1243,-2.124,-2.1278,-2.1278,-2.1278,-2.1216,-2.1214,-2.1211,-2.1209,-2.1216,-2.1218,-2.1221,-2.1288,0,0,-2.1229,-2.123,0,0,0,0,0,0,0,0,-2.1229,-2.1232,-2.1247,-2.1245,-2.1242,-2.1243,-2.1258,-2.1281,-2.1217,-2.1226,-2.1211,-2.1208,-2.1228,-2.1229,-2.1236,-2.1288,-2.1288,-2.1229,-2.1231,-2.1232,-2.1232,0,0,0,0,0,0,0,-2.1228,-2.1232,-2.1275,-2.1248,-2.1245,-2.1229,-2.1229,-2.1262,-2.1241,-2.1225,-2.122,-2.1221,-2.1226,-2.1233,-2.1235,-2.1288,-2.1229,-2.1231,-2.1233,-2.1234,-2.1396,-2.1398,0,0,0,0,0,0,-2.1231,-2.1231,-2.1275,-2.1275,-2.1229,-2.1233,-2.1232,-2.1246,-2.124,-2.1237,-2.1224,-2.1218,-2.123,-2.1232,-2.1235,-2.1314,-2.1232,-2.1234,-2.1236,-2.1393,-2.1396,-2.1399,0,0,0,0,0,0,-2.1229,-2.1235,-2.1275,-2.1252,-2.1256,-2.1236,-2.1252,-2.1247,-2.1254,-2.124,-2.1236,-2.1235,-2.1228,-2.1232,-2.1275,-2.1313,-2.1235,-2.1238,-2.139,-2.1394,-2.1398,-2.1472,0,0,0,0,0,0,-2.1228,-2.1235,-2.126,-2.1253,-2.1257,-2.1314,-2.1254,-2.1249,-2.1259,-2.1252,-2.1249,-2.1246,-2.1227,-2.1272,-2.1278,-2.1316,-2.124,-2.1386,-2.1392,-2.1397,-2.1466,-2.1478,-2.1488,0,0,0,0,0,-2.1226,-2.1281,-2.1262,-2.1268,-2.1288,-2.1317,-2.1319,-2.1295,-2.1262,-2.1288,-2.1278,-2.1247,-2.1308,-2.1277,-2.1283,-2.1322,-2.1384,-2.139,-2.1396,-2.1461,-2.1475,-2.1488,0,0,0,0,0,0,-2.1294,-2.128,-2.1258,-2.1313,-2.1316,-2.1306,-2.1338,-2.1311,-2.1325,-2.1318,-2.1287,-2.1287,-2.1336,-2.1333,-2.1298,-2.1387,-2.134,-2.1348,-2.1387,-2.1401,-2.1412,-2.1412,-2.1242,0,0,0,0,0,-2.1316,-2.134,-2.1325,-2.1375,-2.1378,-2.1357,-2.1369,-2.1349,-2.1352,-2.1354,-2.1347,-2.1352,-2.1372,-2.1386,-2.1404,-2.1464,-2.1463,-2.1494,-2.1506,-2.1515,-2.1522,-2.1555,-2.1569,-2.142,-2.142,-2.1419,0,0,-2.136,-2.1355,-2.1372,-2.1388,-2.1389,-2.1415,-2.1359,-2.1389,-2.1408,-2.1358,-2.1399,-2.1394,-2.1397,-2.145,-2.1472,-2.1449,-2.1563,-2.1523,-2.153,-2.1533,-2.1562,-2.1577,-2.1589,-2.1424,-2.1423,-2.1422,0,0,-2.1455,-2.1453,-2.1494,-2.1496,-2.1497,-2.1483,-2.1493,-2.1486,-2.1481,-2.1521,-2.1484,-2.1506,-2.1542,-2.1545,-2.1552,-2.1647,-2.1618,-2.1653,-2.1712,-2.1744,-2.1756,-2.1766,-2.18,-2.1813,-2.166,-2.166,-2.1661,0,-2.1511,-2.1548,-2.1519,-2.1551,-2.1559,-2.1514,-2.1556,-2.1559,-2.1566,-2.1573,-2.1546,-2.1589,-2.1588,-2.1641,-2.1664,-2.167,-2.1681,-2.1654,-2.1756,-2.1766,-2.1775,-2.1808,-2.1821,-2.1665,-2.1664,-2.1664,-2.1663,0,-2.1616,-2.1642,-2.1675,-2.1683,-2.1695,-2.1732,-2.1709,-2.1724,-2.1703,-2.1692,-2.1733,-2.173,-2.1746,-2.1757,-2.1737,-2.1807,-2.1792,-2.1761,-2.1714,-2.1794,-2.1824,-2.1837,-2.1671,-2.1669,-2.1668,-2.1667,0,0,-2.1756,-2.1746,-2.1759,-2.1762,-2.1759,-2.1779,-2.1813,-2.1829,-2.1843,-2.1849,-2.1878,-2.1908,-2.1879,-2.1886,-2.1866,-2.1894,-2.197,-2.1859,-2.1859,-2.1881,-2.2047,-2.2072,-2.2087,-2.195,-2.1953,-2.1954,-2.2048,0,-2.1849,-2.1907,-2.1882,-2.1943,-2.1967,-2.1924,-2.1954,-2.1956,-2.1946,-2.1965,-2.1954,-2.1976,-2.1936,-2.194,-2.1965,-2.1956,-2.2003,-2.1948,-2.1978,-2.1979,-2.198,-2.2102,-2.2129,-2.2217,-2.2059,-2.2061,-2.2062,0,-2.1966,-2.1976,-2.204,-2.2032,-2.2041,-2.2069,-2.208,-2.2099,-2.21,-2.2091,-2.2099,-2.2072,-2.2106,-2.2057,-2.2104,-2.2067,-2.2077,-2.2074,-2.2077,-2.208,-2.2027,-2.211,-2.2244,-2.2258,-2.2081,-2.2079,-2.2078,0,-2.2063,-2.2092,-2.2134,-2.2137,-2.213,-2.215,-2.2148,-2.2146,-2.2157,-2.2167,-2.2174,-2.2188,-2.2196,-2.2207,-2.2186,-2.2152,-2.2235,-2.2185,-2.2229,-2.223,-2.225,-2.2249,-2.2389,-2.2254,-2.2254,-2.2254,-2.2254,0,-2.217,-2.2211,-2.2177,-2.2203,-2.2248,-2.2217,-2.2262,-2.2255,-2.2254,-2.2278,-2.2241,-2.2265,-2.2233,-2.2254,-2.2237,-2.2278,-2.2282,-2.2276,-2.2271,-2.228,-2.2281,-2.2287,-2.2281,-2.2257,-2.2257,-2.2256,-2.2255,0,-2.2287,-2.2266,-2.2309,-2.2297,-2.2295,-2.2329,-2.2319,-2.2343,-2.2329,-2.236,-2.2366,-2.2345,-2.2367,-2.2346,-2.2367,-2.2355,-2.2411,-2.2396,-2.2411,-2.2407,-2.2453,-2.2449,-2.2603,-2.2621,-2.2474,-2.2475,-2.2477,0,-2.2358,-2.2388,-2.2379,-2.2392,-2.2392,-2.2414,-2.2424,-2.2395,-2.2408,-2.241,-2.2434,-2.2452,-2.2466,-2.2503,-2.2491,-2.2507,-2.2493,-2.2546,-2.2495,-2.2503,-2.2495,-2.2494,-2.2497,-2.2557,-2.2558,-2.256,-2.2561,0,-2.2486,-2.2474,-2.249,-2.2502,-2.2515,-2.2524,-2.2529,-2.2542,-2.2512,-2.2528,-2.255,-2.256,-2.2581,-2.26,-2.2612,-2.261,-2.2581,-2.2576,-2.2588,-2.2598,-2.2605,-2.2603,-2.244,-2.2574,-2.2572,-2.2571,-2.2571,-2.257,-2.2583,-2.2607,-2.2605,-2.2624,-2.2625,-2.2631,-2.2652,-2.2641,-2.2659,-2.2673,-2.2655,-2.2682,-2.2681,-2.2694,-2.2695,-2.2716,-2.2694,-2.271,-2.2714,-2.2719,-2.2726,-2.2601,-2.2718,-2.2717,-2.2717,-2.2716,-2.2716,0,-2.271,-2.2706,-2.2723,-2.2732,-2.2747,-2.2717,-2.2721,-2.2736,-2.276,-2.2761,-2.2775,-2.28,-2.2818,-2.2806,-2.2822,-2.2841,-2.2828,-2.2846,-2.2845,-2.2845,-2.2744,-2.2734,-2.2856,-2.2856,-2.2856,-2.2856,-2.2856,-2.2856,-2.2778,-2.2818,-2.2806,-2.2846,-2.2842,-2.2867,-2.2872,-2.2878,-2.2879,-2.2908,-2.2923,-2.2914,-2.2911,-2.2926,-2.2941,-2.2937,-2.2945,-2.2968,-2.296,-2.2866,-2.2852,-2.2839,-2.2829,-2.297,-2.297,-2.3059,-2.306,-2.306]},{"header":{"parameterUnit":"m.s-1","parameterCategory":1,"la1":30.2991,"la2":30.254,"lo1":-89.0895,"lo2":-89.0444,"dy":0.0017,"dx":0.0017,"nx":28,"ny":28,"refTime":"2025-11-26T09:00:00:Z","depth":0,"parameterNumber":3,"parameterNumberName":"V-component_of_WINDS"},"data":[0,0,0,0,0,0,0,0,0,0,0,0,0,0,0,0,0,0,0,0,0,0,0,0,0,0,0,0,0,0,0,0,0,0,0,0,0,0,0,0,0,0,0,0,0,0,0,0,0,0,0,0,0,0,0,0,0,0,-6.7562,-6.7563,0,-6.7668,-6.767,-6.7671,-6.761,-6.7607,-6.7604,-6.7601,-6.7704,-6.771,-6.7715,0,0,0,0,0,0,0,0,0,0,0,0,0,-6.7302,-6.7307,-6.7562,-6.7564,-6.7565,-6.7668,-6.767,-6.7671,-6.7611,-6.7607,-6.7603,-6.76,-6.7703,-6.7709,-6.7716,0,0,0,0,0,0,0,0,0,0,0,0,0,-6.7412,-6.7309,-6.7562,-6.7547,-6.7547,-6.7668,-6.767,-6.7671,-6.7611,-6.7607,-6.7602,-6.7598,-6.77,-6.7708,-6.7716,-6.7856,0,0,-6.7742,-6.7745,0,0,0,0,0,0,0,0,-6.7406,-6.7422,-6.7548,-6.7549,-6.7548,-6.7622,-6.7616,-6.7733,-6.7612,-6.7587,-6.7601,-6.7596,-6.768,-6.769,-6.7719,-6.7861,-6.7865,-6.7742,-6.7747,-6.7751,-6.7753,0,0,0,0,0,0,0,-6.7398,-6.7417,-6.7604,-6.755,-6.755,-6.7534,-6.7544,-6.7638,-6.7657,-6.7589,-6.7585,-6.7598,-6.7679,-6.7711,-6.7721,-6.7867,-6.7742,-6.7749,-6.7755,-6.7758,-6.8128,-6.8133,0,0,0,0,0,0,-6.7392,-6.7411,-6.7601,-6.7607,-6.7465,-6.7542,-6.7554,-6.7602,-6.7656,-6.766,-6.7602,-6.7595,-6.7699,-6.7711,-6.7724,-6.7892,-6.7751,-6.7759,-6.7763,-6.8124,-6.8129,-6.8135,0,0,0,0,0,0,-6.7387,-6.741,-6.7596,-6.7508,-6.7531,-6.7551,-6.7606,-6.7607,-6.7639,-6.7666,-6.7668,-6.7632,-6.7696,-6.7713,-6.7824,-6.7895,-6.7762,-6.777,-6.8118,-6.8125,-6.8132,-6.8228,0,0,0,0,0,0,-6.738,-6.7409,-6.7463,-6.751,-6.7536,-6.7696,-6.761,-6.7612,-6.7654,-6.7646,-6.7694,-6.7698,-6.7694,-6.7812,-6.7832,-6.7903,-6.7776,-6.8112,-6.8121,-6.813,-6.8218,-6.8237,-6.8254,0,0,0,0,0,-6.7371,-6.7484,-6.7466,-6.7489,-6.7604,-6.7701,-6.7715,-6.771,-6.766,-6.7714,-6.7731,-6.7696,-6.7884,-6.7824,-6.7846,-6.7921,-6.8107,-6.8118,-6.8129,-6.821,-6.8234,-6.8253,0,0,0,0,0,0,-6.7443,-6.749,-6.747,-6.7603,-6.7649,-6.769,-6.7759,-6.7735,-6.7794,-6.7784,-6.7773,-6.7785,-6.7901,-6.7922,-6.7855,-6.8059,-6.7987,-6.8003,-6.8041,-6.8064,-6.8081,-6.8074,-6.7783,0,0,0,0,0,-6.7475,-6.7551,-6.7587,-6.77,-6.7724,-6.7738,-6.7779,-6.7772,-6.7818,-6.7836,-6.7861,-6.7906,-6.7974,-6.802,-6.8085,-6.8221,-6.823,-6.8283,-6.83,-6.8315,-6.8329,-6.8402,-6.8426,-6.8171,-6.8171,-6.8171,0,0,-6.754,-6.7575,-6.7624,-6.7716,-6.775,-6.7828,-6.7754,-6.7839,-6.7896,-6.7848,-6.7956,-6.7976,-6.8025,-6.8149,-6.8205,-6.817,-6.8401,-6.8329,-6.834,-6.8346,-6.8416,-6.844,-6.8462,-6.8178,-6.8177,-6.8176,0,0,-6.77,-6.7734,-6.7833,-6.7869,-6.7923,-6.7931,-6.7955,-6.8001,-6.8013,-6.8121,-6.8087,-6.8154,-6.8272,-6.8309,-6.8343,-6.8517,-6.8487,-6.8538,-6.863,-6.8702,-6.8722,-6.874,-6.8802,-6.8825,-6.8552,-6.8552,-6.8552,0,-6.7774,-6.7892,-6.7886,-6.7974,-6.8015,-6.7978,-6.8077,-6.8111,-6.8183,-6.8212,-6.8171,-6.832,-6.835,-6.8483,-6.8526,-6.8554,-6.858,-6.8533,-6.872,-6.8738,-6.8754,-6.8814,-6.8837,-6.8558,-6.8557,-6.8556,-6.8556,0,-6.798,-6.8062,-6.8135,-6.8208,-6.8257,-6.835,-6.8357,-6.8407,-6.8395,-6.8407,-6.8517,-6.8552,-6.8623,-6.8654,-6.8642,-6.8785,-6.8762,-6.8722,-6.8649,-6.8785,-6.884,-6.8863,-6.8566,-6.8564,-6.8562,-6.8561,0,0,-6.8188,-6.8258,-6.8284,-6.8317,-6.8374,-6.8436,-6.8527,-6.8599,-6.8642,-6.8692,-6.8768,-6.887,-6.8833,-6.8871,-6.8863,-6.8926,-6.9062,-6.8878,-6.8879,-6.8911,-6.9222,-6.9253,-6.928,-6.9043,-6.9047,-6.905,-6.9218,0,-6.8352,-6.8514,-6.8511,-6.866,-6.8735,-6.8701,-6.878,-6.8822,-6.8836,-6.89,-6.8914,-6.8987,-6.8932,-6.8955,-6.9016,-6.9033,-6.9125,-6.9021,-6.9112,-6.9115,-6.9102,-6.9309,-6.9342,-6.9499,-6.924,-6.9244,-6.9246,0,-6.8565,-6.8625,-6.8782,-6.8829,-6.886,-6.8932,-6.8998,-6.906,-6.9107,-6.9112,-6.9156,-6.9138,-6.9229,-6.9154,-6.9278,-6.9208,-6.9244,-6.9258,-6.9264,-6.9273,-6.9189,-6.9323,-6.9549,-6.9573,-6.928,-6.9278,-6.9275,0,-6.8702,-6.8821,-6.8931,-6.896,-6.9017,-6.9068,-6.9094,-6.9137,-6.918,-6.9237,-6.9265,-6.9331,-6.9367,-6.9417,-6.9417,-6.9362,-6.9543,-6.9468,-6.9549,-6.9549,-6.9589,-6.9587,-6.9824,-6.9612,-6.9612,-6.9611,-6.9611,0,-6.8885,-6.8983,-6.8994,-6.9062,-6.917,-6.9165,-6.9271,-6.9292,-6.933,-6.94,-6.9373,-6.9438,-6.9434,-6.95,-6.9499,-6.9603,-6.9619,-6.9625,-6.9624,-6.9628,-6.9627,-6.9652,-6.9642,-6.9617,-6.9616,-6.9615,-6.9614,0,-6.9057,-6.9068,-6.9186,-6.9231,-6.9244,-6.9322,-6.9359,-6.9422,-6.9434,-6.9522,-6.9543,-6.956,-6.9636,-6.9641,-6.9728,-6.9728,-6.9854,-6.984,-6.9839,-6.9836,-6.9918,-6.991,-7.018,-7.0215,-6.9979,-6.9982,-6.9984,0,-6.9174,-6.9248,-6.9302,-6.9348,-6.9377,-6.9451,-6.9496,-6.9494,-6.9541,-6.9601,-6.9657,-6.9731,-6.979,-6.9913,-6.9932,-6.9999,-6.9987,-7.0077,-6.9997,-6.9999,-6.9989,-6.9985,-6.9993,-7.0093,-7.0095,-7.0097,-7.0099,0,-6.938,-6.9382,-6.9449,-6.9519,-6.9574,-6.9628,-6.9678,-6.9716,-6.972,-6.9774,-6.9853,-6.9899,-6.999,-7.0063,-7.0128,-7.0152,-7.0127,-7.0124,-7.0147,-7.0152,-7.0149,-7.0152,-6.9882,-7.0118,-7.0116,-7.0115,-7.0114,-7.0113,-6.9528,-6.9593,-6.9642,-6.9717,-6.9755,-6.9803,-6.9865,-6.9885,-6.9952,-7.0027,-7.002,-7.0108,-7.0152,-7.0237,-7.0267,-7.0334,-7.0303,-7.0335,-7.0344,-7.0352,-7.0361,-7.0138,-7.0345,-7.0345,-7.0344,-7.0344,-7.0343,0,-6.9734,-6.9763,-6.9833,-6.9905,-6.9965,-6.9937,-6.9991,-7.0042,-7.012,-7.0165,-7.0224,-7.0315,-7.0386,-7.0411,-7.048,-7.0529,-7.0519,-7.0547,-7.0544,-7.055,-7.0384,-7.0358,-7.0555,-7.0555,-7.0554,-7.0554,-7.0554,-7.0554,-6.9848,-6.9957,-6.9965,-7.0092,-7.012,-7.0208,-7.0241,-7.0284,-7.032,-7.0423,-7.0484,-7.05,-7.0537,-7.0608,-7.0672,-7.0677,-7.0704,-7.0738,-7.0738,-7.0583,-7.0562,-7.0541,-7.0517,-7.0744,-7.0744,-7.0899,-7.09,-7.0901]}]]